{"data":{"norad_id":56453,"epoch":"2026-05-25T04:48:32.770656Z","epoch_age_seconds":47982,"freshness":"FRESH","line1":"1 56453U 23064F   26145.20037929  .00000214  00000+0  25740-4 0  9996","line2":"2 56453  69.9985 311.6636 0002364 271.2251  88.8637 14.98330377166707","mean_motion":14.98330377,"eccentricity":0.0002364,"inclination_deg":69.9985,"raan_deg":311.6636,"arg_perigee_deg":271.2251,"mean_anomaly_deg":88.8637,"bstar":2.574e-5,"rev_number":16670,"period_min":96.106974943884,"perigee_km":570.41169977945,"apogee_km":573.69775042707,"semimajor_km":6950.1917251033,"source":"CELESTRAK","updated_at":"2026-05-25T13:38:18.066852Z"}}